Regional Weather Roundup
Issued by NWS Charleston, SC

Current Version | Previous Version | Text Only | Print | Product List | Glossary Off
Versions: 1 2 3 4 5 6 7 8 9 10 11 12 13 14 15 16 17 18 19 20 21 22 23 24 25 26 27 28 29 30 31 32 33 34 35 36 37 38 39 40 41 42 43 44 45 46 47 48 49 50
107 ASUS42 KCHS 282212 RWRCHS REGIONAL WEATHER ROUNDUP NATIONAL WEATHER SERVICE CHARLESTON SC 600 PM EDT WED JUN 28 2017 NOTE: "FAIR" INDICATES FEW OR NO CLOUDS BELOW 12,000 FEET WITH NO SIGNIFICANT WEATHER AND/OR OBSTRUCTIONS TO VISIBILITY. NOT ALL STATIONS ARE QUALITY CONTROLLED. USE DATA WITH CAUTION... ESPECIALLY DEWPOINT OBSERVATIONS. SCZ027-030-031-034>040-042>050-282300- ...SOUTHEAST SOUTH CAROLINA... CITY SKY/WX TMP DP RH WIND PRES REMARKS N CHARLESTON MOSUNNY 85 59 41 E12 30.13S WATERFRONT PRK N/A 82 68 62 E14 30.12F JOHNS ISLAND FAIR 82 66 57 E14 30.13F PINOPOLIS N/A 84 63 48 E5 30.06F MONCKS CORNER FAIR 84 55 37 SE5 30.13S SUMMERVILLE FAIR 86 61 42 SE6 30.13F BEAUFORT MCAS MOSUNNY 84 70 62 E12 30.13S BEAUFORT ARPT FAIR 81 68 65 E14G21 30.13R HAZE HILTON HEAD IS MOSUNNY 82 70 65 NE9 30.13S WALTERBORO CLEAR 84 59 42 E10 30.13F ALLENDALE MOCLDY 84 66 54 SE5 30.11S ...SOUTHERN MIDLANDS AND PEE DEE... CITY SKY/WX TMP DP RH WIND PRES REMARKS GEORGETOWN FAIR 81 57 44 SE12 30.16S KINGSTREE FAIR 84 54 34 E6 30.14S ORANGEBURG PTSUNNY 85 60 42 VRB7 30.13S BARNWELL FAIR 88 64 45 E7 30.12S AIKEN NOT AVBL MANNING FAIR 86 54 32 S5 30.13S COLUMBIA MOSUNNY 87 56 34 E8 30.12F SUMTER MOSUNNY 86 55 35 SE8 30.11F FLORENCE SUNNY 85 55 35 E7 30.14F MYRTLE BEACH MOSUNNY 82 64 54 SE9 30.16S N MYRTLE BEACH SUNNY 82 61 48 SE10 30.15S $$ GAZ063-065-086>088-099>101-113>116-118-119-134>141-150-282300- ...SOUTHEAST GEORGIA... CITY SKY/WX TMP DP RH WIND PRES REMARKS SAVANNAH ARPT PTSUNNY 84 66 54 E14G22 30.12S HUNTER AAF MOSUNNY 84 70 61 E16 30.09S FORT STEWART MOSUNNY 85 66 52 E15 30.09S STATESBORO MOSUNNY 85 67 54 SE9 30.11F SYLVANIA PTCLDY 84 70 62 SE6 30.13S CLAXTON FAIR 83 65 55 E9G17 30.11R ...CSRA...CENTRAL AND FAR SOUTHEAST GEORGIA... CITY SKY/WX TMP DP RH WIND PRES REMARKS THOMSON PTSUNNY 85 63 48 SW6 30.16S AUGUSTA-BUSH SUNNY 89 64 43 SE8 30.09F HX 90 AUGUSTA-DANIEL MOSUNNY 87 59 38 E8 30.12S SWAINSBORO FAIR 86 66 51 SE10 30.11S VIDALIA SUNNY 88 68 51 E8 30.10F HX 91 EASTMAN FAIR 89 50 26 E10 30.12R HAZLEHURST FAIR 86 68 54 E5 30.08S ALMA SUNNY 86 66 51 E7 30.08S WAYCROSS MOSUNNY 88 75 65 SE9 30.08S HX 97 JESUP MOCLDY 84 64 51 SE9G16 30.10S BAXLEY FAIR 88 70 55 E13 30.09S HX 92 BRUNSWICK CLOUDY 84 73 70 E13 30.11S HX 91 SAINT SIMONS CLOUDY 83 71 67 E13 30.10R $$ SCZ027-028-034-036>038-045-046-048>050-GAZ119-141-282300- ...LAKE AND SUPPLEMENTAL COASTAL OBSERVATIONS... STATION/POSITION TIME TEMP WIND PRES WAVE SWELL AIR SEA DIR/SP/G HT/PER HT/PER/DIR (UTC) (F) (DEG/KT/KT) (MB) (FT/S) (FT/S/D) WINYAH BAY NOT AVBL LAKE MURRAY 2120 87 180/ 5/ 6 1019.3 ACE BASIN NERRS 2045 85 80/ 4 1020.0 FORT PULASKI 2148 81 83 80/ 17/ 19 1020.3R SAPELO ISLAND 2100 83 80/ 9 1019.0 $$ ANZ835-935-AMZ111-154-330-350-352-354-370-450-454-472-282300- ...C-MAN AND BUOY OBSERVATIONS... STATION/POSITION TIME TEMP WIND PRES WAVE SWELL AIR SEA DIR/SP/G HT/PER HT/PER/DIR (UTC) (F) (DEG/KT/KT) (MB) (FT/S) (FT/S/D) BUOY 41004 2150 80 80 50/ 16/ 19 1019.9F 5/ 6 BUOY 41008 2050 81 82 70/ 16/ 17 1018.9 3/ 5 2/120/ 8 FOLLY BEACH CMAN 2100 81 70/ 14/ 17 1021.2F CAPERS NEARSHORE 2108 85 83 80/ 14/ 19 1020.4F FRIPP NEARSHORE 2108 81 83 80/ 16/ 21 1019.6S STATION/POSITION TIME TEMP WIND PRES WAVE SWELL AIR SEA DIR/SP/G HT/PER HT/PER/DIR (UTC) (F) (DEG/KT/KT) (MB) (FT/S) (FT/S/D) 5E ST. MARYS GA 2130 81 N/A 3/ 5 FRYING PAN BUOY 2150 79 80 60/ 12/ 14 1020.9F 2/ 5 2/120/ 7 BUOY 41025 2150 78 83 40/ 8/ 12 1021.8R 2/ 7 2/ 60/ 7 CAPE LOOKOUT NC 2100 79 70/ 11/ 12 1021.4R BUOY 41002 2050 80 81 60/ 14/ 16 1019.4 3/ 6 2/130/ 8 BUOY 41010 2150 82 84 80/ 10/ 12 1017.6R 2/ 7 2/120/ 7 ST AUGUSTINE FL 2200 81 82 70/ 9/ 10 1018.5F $$

USA.gov is the U.S. government's official web portal to all federal, state and local government web resources and services.